Location: Vancouver
(49.2500°N, 123.1330°W)
Time: 16:48:56
(UTC-07:00)

Iridium 35 - Visible Passes

Search period start: 31 August 2015 00:00
Search period end: 10 September 2015 00:00
Orbit: 776 x 779 km, 86.4° (Epoch: 31 August)

Date Brightness Start Highest point End Pass type
(mag) Time Alt. Az. Time Alt. Az. Time Alt. Az.
31 Aug 7.8 04:20:53 10° NNE 04:24:33 19° ENE 04:28:21 10° ESE visible
01 Sep 8.1 03:48:50 10° NE 03:50:30 12° ENE 03:52:27 10° E visible
01 Sep 5.3 05:27:07 10° N 05:32:21 74° E 05:37:35 10° S visible
02 Sep 6.3 04:53:44 10° N 04:58:43 43° E 05:03:41 10° SSE visible
03 Sep 7.2 04:20:35 10° NNE 04:24:54 26° ENE 04:29:17 10° SE visible
04 Sep 7.8 03:47:52 10° NNE 03:50:57 16° ENE 03:54:13 10° ESE visible
04 Sep 5.0 05:27:14 10° N 05:32:29 82° W 05:37:42 10° S visible
05 Sep 5.6 04:53:44 10° N 04:58:55 60° E 05:04:04 10° SSE visible
06 Sep 6.6 04:20:26 10° N 04:25:12 35° ENE 04:29:59 10° SE visible
06 Sep 5.7 06:01:14 10° NNW 06:05:57 35° W 06:10:36 10° SSW visible
07 Sep 7.4 03:47:25 10° NNE 03:51:20 22° ENE 03:55:22 10° ESE visible
07 Sep 5.1 05:27:25 10° N 05:32:34 59° W 05:37:40 10° SSW visible
08 Sep 7.9 03:15:02 10° NE 03:17:18 13° ENE 03:19:50 10° E visible
08 Sep 5.1 04:53:48 10° N 04:59:04 82° E 05:04:18 10° S visible
09 Sep 6.0 04:20:22 10° N 04:25:26 48° E 04:30:29 10° SSE visible
09 Sep 6.1 06:01:39 10° NNW 06:05:56 26° W 06:10:06 10° SW visible
